Previsão horária em Bolshie Karmaly

Hoje, 5 Março, Sexta-feira

Tempo Temperatura Precipitação Vento Pressão Humidade
00:00 -10°C° 0 mm 4 m/s 736 mmHg 91%
01:00 -10°C° 0 mm 3 m/s 736 mmHg 91%
02:00 -10°C° 0 mm 3 m/s 737 mmHg 92%
03:00 -10°C° 0 mm 3 m/s 737 mmHg 92%
04:00 -12°C° 0 mm 3 m/s 737 mmHg 92%
05:00 -10°C° 0 mm 2 m/s 738 mmHg 93%
06:00 -12°C° 0 mm 2 m/s 738 mmHg 93%
07:00 -12°C° 0 mm 2 m/s 738 mmHg 93%
08:00 -12°C° 0 mm 2 m/s 739 mmHg 93%
09:00 -12°C° 0 mm 2 m/s 739 mmHg 93%
10:00 -10°C° 0 mm 2 m/s 740 mmHg 91%
11:00 -10°C° 0 mm 2 m/s 740 mmHg 88%
12:00 -9°C° 0 mm 2 m/s 741 mmHg 86%
13:00 -9°C° 0 mm 2 m/s 741 mmHg 87%
14:00 -9°C° 0 mm 2 m/s 742 mmHg 89%
15:00 -9°C° 0 mm 2 m/s 742 mmHg 90%
16:00 -10°C° 0 mm 2 m/s 743 mmHg 90%
17:00 -12°C° 0 mm 2 m/s 743 mmHg 90%
18:00 -13°C° 0 mm 2 m/s 744 mmHg 91%
19:00 -14°C° 0 mm 3 m/s 744 mmHg 91%
20:00 -14°C° 0 mm 3 m/s 745 mmHg 91%
21:00 -15°C° 0 mm 3 m/s 745 mmHg 91%
22:00 -15°C° 0 mm 3 m/s 745 mmHg 91%
23:00 -15°C° 0 mm 3 m/s 745 mmHg 90%

Amanhã, 6 Março, Sábado

Tempo Temperatura Precipitação Vento Pressão Humidade
00:00 -15°C° 0 mm 3 m/s 745 mmHg 90%
01:00 -14°C° 0.1 mm 3 m/s 745 mmHg 91%
02:00 -13°C° 0.1 mm 3 m/s 745 mmHg 93%
03:00 -14°C° 0.1 mm 4 m/s 746 mmHg 95%
04:00 -13°C° 0 mm 3 m/s 746 mmHg 95%
05:00 -14°C° 0 mm 3 m/s 746 mmHg 95%
06:00 -15°C° 0 mm 3 m/s 746 mmHg 95%
07:00 -16°C° 0 mm 4 m/s 746 mmHg 94%
08:00 -15°C° 0 mm 4 m/s 747 mmHg 94%
09:00 -15°C° 0 mm 4 m/s 747 mmHg 93%
10:00 -15°C° 0 mm 4 m/s 747 mmHg 91%
11:00 -15°C° 0 mm 4 m/s 747 mmHg 89%
12:00 -15°C° 0 mm 4 m/s 747 mmHg 87%
13:00 -15°C° 0 mm 4 m/s 747 mmHg 88%
14:00 -15°C° 0 mm 4 m/s 747 mmHg 89%
15:00 -14°C° 0 mm 3 m/s 747 mmHg 90%
16:00 -16°C° 0 mm 3 m/s 747 mmHg 91%
17:00 -17°C° 0 mm 3 m/s 747 mmHg 93%
18:00 -19°C° 0 mm 3 m/s 747 mmHg 94%
19:00 -19°C° 0 mm 3 m/s 747 mmHg 94%
20:00 -19°C° 0 mm 3 m/s 747 mmHg 93%
21:00 -21°C° 0 mm 3 m/s 747 mmHg 93%
22:00 -21°C° 0 mm 3 m/s 747 mmHg 94%
23:00 -20°C° 0 mm 2 m/s 747 mmHg 95%

Depois de amanhã, 7 Março, Domingo

Tempo Temperatura Precipitação Vento Pressão Humidade
00:00 -20°C° 0 mm 2 m/s 746 mmHg 96%
01:00 -20°C° 0 mm 2 m/s 746 mmHg 97%
02:00 -21°C° 0 mm 2 m/s 746 mmHg 97%
03:00 -21°C° 0 mm 2 m/s 746 mmHg 98%
04:00 -21°C° 0 mm 2 m/s 746 mmHg 98%
05:00 -21°C° 0 mm 2 m/s 746 mmHg 98%
06:00 -23°C° 0 mm 2 m/s 746 mmHg 99%
07:00 -21°C° 0 mm 2 m/s 746 mmHg 98%
08:00 -20°C° 0 mm 2 m/s 746 mmHg 96%
09:00 -19°C° 0 mm 2 m/s 746 mmHg 95%
10:00 -17°C° 0 mm 2 m/s 746 mmHg 94%
11:00 -17°C° 0 mm 3 m/s 745 mmHg 93%
12:00 -16°C° 0 mm 3 m/s 745 mmHg 91%
13:00 -15°C° 0 mm 3 m/s 744 mmHg 91%
14:00 -16°C° 0 mm 4 m/s 744 mmHg 91%
15:00 -15°C° 0 mm 4 m/s 743 mmHg 91%
16:00 -14°C° 0 mm 5 m/s 743 mmHg 90%
17:00 -14°C° 0 mm 6 m/s 742 mmHg 89%
18:00 -14°C° 0 mm 7 m/s 741 mmHg 88%
19:00 -13°C° 0.2 mm 7 m/s 741 mmHg 90%
20:00 -13°C° 0.2 mm 7 m/s 740 mmHg 92%
21:00 -12°C° 0.2 mm 8 m/s 739 mmHg 93%
22:00 -12°C° 0.3 mm 8 m/s 738 mmHg 93%
23:00 -12°C° 0.3 mm 9 m/s 737 mmHg 93%

8 Março, Segunda-feira

Tempo Temperatura Precipitação Vento Pressão Humidade
00:00 -11°C° 0.3 mm 9 m/s 736 mmHg 93%
01:00 -11°C° 0.4 mm 9 m/s 735 mmHg 91%
02:00 -11°C° 0.4 mm 9 m/s 735 mmHg 89%
03:00 -12°C° 0.4 mm 9 m/s 734 mmHg 88%
04:00 -14°C° 0 mm 9 m/s 735 mmHg 86%
05:00 -16°C° 0 mm 8 m/s 735 mmHg 84%
06:00 -18°C° 0 mm 7 m/s 735 mmHg 82%
07:00 -17°C° 0 mm 7 m/s 735 mmHg 82%
08:00 -16°C° 0 mm 8 m/s 736 mmHg 83%
09:00 -15°C° 0 mm 8 m/s 737 mmHg 84%
10:00 -15°C° 0 mm 8 m/s 737 mmHg 83%
11:00 -13°C° 0 mm 8 m/s 738 mmHg 82%
12:00 -12°C° 0 mm 8 m/s 738 mmHg 81%
13:00 -11°C° 0 mm 6 m/s 738 mmHg 82%
14:00 -11°C° 0 mm 5 m/s 738 mmHg 83%
15:00 -9°C° 0 mm 3 m/s 738 mmHg 84%
16:00 -9°C° 0 mm 3 m/s 737 mmHg 85%
17:00 -9°C° 0 mm 2 m/s 737 mmHg 85%
18:00 -10°C° 0 mm 2 m/s 736 mmHg 86%
19:00 -12°C° 0.4 mm 3 m/s 736 mmHg 88%
20:00 -12°C° 0.4 mm 4 m/s 736 mmHg 90%
21:00 -13°C° 0.4 mm 5 m/s 736 mmHg 91%
22:00 -13°C° 0.2 mm 5 m/s 737 mmHg 91%
23:00 -13°C° 0.2 mm 5 m/s 737 mmHg 91%

9 Março, Terça-feira

Tempo Temperatura Precipitação Vento Pressão Humidade
00:00 -15°C° 0.2 mm 6 m/s 738 mmHg 91%
01:00 -14°C° 0 mm 5 m/s 739 mmHg 92%
02:00 -15°C° 0 mm 5 m/s 740 mmHg 92%
03:00 -15°C° 0 mm 5 m/s 741 mmHg 93%
04:00 -17°C° 0 mm 5 m/s 742 mmHg 93%
05:00 -18°C° 0 mm 5 m/s 743 mmHg 93%
06:00 -18°C° 0 mm 4 m/s 743 mmHg 94%
07:00 -19°C° 0 mm 5 m/s 744 mmHg 93%
08:00 -19°C° 0 mm 5 m/s 745 mmHg 93%
09:00 -18°C° 0 mm 5 m/s 745 mmHg 93%
10:00 -17°C° 0 mm 4 m/s 746 mmHg 93%
11:00 -16°C° 0 mm 4 m/s 746 mmHg 92%
12:00 -14°C° 0 mm 3 m/s 747 mmHg 92%
13:00 -14°C° 0 mm 3 m/s 747 mmHg 92%
14:00 -14°C° 0 mm 3 m/s 747 mmHg 91%
15:00 -13°C° 0 mm 3 m/s 748 mmHg 91%
16:00 -15°C° 0 mm 3 m/s 748 mmHg 92%
17:00 -15°C° 0 mm 2 m/s 748 mmHg 93%
18:00 -16°C° 0 mm 2 m/s 748 mmHg 94%
19:00 -16°C° 0 mm 2 m/s 748 mmHg 94%
20:00 -17°C° 0 mm 2 m/s 749 mmHg 94%
21:00 -17°C° 0 mm 2 m/s 749 mmHg 94%
22:00 -17°C° 0 mm 2 m/s 749 mmHg 95%
23:00 -16°C° 0 mm 2 m/s 749 mmHg 95%

10 Março, Quarta-feira

Tempo Temperatura Precipitação Vento Pressão Humidade
00:00 -16°C° 0 mm 2 m/s 749 mmHg 95%
01:00 -17°C° 0 mm 2 m/s 749 mmHg 95%
02:00 -17°C° 0 mm 2 m/s 749 mmHg 95%
03:00 -18°C° 0 mm 3 m/s 749 mmHg 94%
04:00 -19°C° 0 mm 3 m/s 749 mmHg 95%
05:00 -19°C° 0 mm 3 m/s 749 mmHg 95%
06:00 -21°C° 0 mm 3 m/s 749 mmHg 96%
07:00 -22°C° 0 mm 4 m/s 749 mmHg 95%
08:00 -22°C° 0 mm 4 m/s 749 mmHg 95%
09:00 -23°C° 0 mm 4 m/s 750 mmHg 95%
10:00 -22°C° 0 mm 4 m/s 750 mmHg 94%
11:00 -20°C° 0 mm 4 m/s 750 mmHg 93%
12:00 -20°C° 0 mm 4 m/s 750 mmHg 92%
13:00 -19°C° 0 mm 4 m/s 750 mmHg 91%
14:00 -19°C° 0 mm 4 m/s 750 mmHg 90%
15:00 -20°C° 0 mm 5 m/s 751 mmHg 89%
16:00 -20°C° 0 mm 4 m/s 751 mmHg 91%
17:00 -22°C° 0 mm 4 m/s 751 mmHg 92%
18:00 -23°C° 0 mm 3 m/s 751 mmHg 94%
19:00 -25°C° 0 mm 4 m/s 752 mmHg 95%
20:00 -26°C° 0 mm 4 m/s 752 mmHg 95%
21:00 -29°C° 0 mm 4 m/s 753 mmHg 96%
22:00 -29°C° 0 mm 4 m/s 753 mmHg 96%
23:00 -30°C° 0 mm 4 m/s 753 mmHg 97%
Mostrar mais